Wind_Speed
16 14 15 16 19 20 19 18 16 14 11 9 9 6 7 7 6 6 5 6 6 5 5 5 6 6 6 7 9 10 9 14
18 16 16 18 20 19 19 17 16 14 13 10 9 8 6 6 6 7 6 6 7 6 5 5 5 6 8 9 9 9 11 16
23 21 17 19 21 20 20 18 17 15 12 11 7 6 8 6 6 6 6 6 7 5 4 4 6 7 8 8 8 8 8 9
30 29 22 22 23 23 22 20 18 16 14 12 11 8 6 5 3 4 5 6 7 6 3 4 5 7 8 9 9 7 7 6
33 33 27 23 24 23 22 21 19 17 14 11 7 5 6 4 1 3 5 5 6 7 5 4 5 6 8 8 8 7 6 4
40 36 29 24 26 26 24 22 20 17 14 13 11 10 8 6 3 4 4 5 8 9 7 5 5 6 7 7 6 6 5 5
41 34 29 26 27 26 26 24 21 18 18 18 16 14 12 10 8 8 8 6 7 9 8 6 5 6 6 7 6 5 5 5
43 39 35 30 31 29 28 25 24 23 25 21 18 16 14 14 12 10 10 10 10 12 11 8 7 6 6 6 6 5 5 5
45 42 37 33 32 31 30 28 25 25 25 22 20 19 19 17 14 12 11 12 12 12 11 9 8 6 6 6 6 6 6 6
45 45 40 35 34 34 31 29 28 28 27 26 26 24 23 21 17 15 13 13 13 12 11 11 10 8 7 7 7 7 7 6
43 48 42 36 34 31 30 29 30 30 29 28 28 26 24 22 19 16 14 14 15 14 13 12 11 10 8 7 8 8 7 8
45 49 44 38 34 32 31 31 30 33 33 31 29 27 25 24 20 17 17 14 15 14 14 13 13 12 9 9 9 9 9 8
46 49 46 43 40 38 37 34 33 33 35 34 31 29 27 25 22 20 19 16 14 14 14 14 14 13 11 11 11 10 9 9
47 49 49 46 45 44 42 40 39 36 36 36 35 32 29 26 24 21 20 17 15 15 15 14 14 14 13 13 12 10 10 11
50 52 52 50 48 46 46 44 42 39 38 38 38 36 31 27 25 24 19 19 17 16 15 16 16 15 15 13 12 12 12 14
47 50 51 52 52 51 48 46 44 42 41 41 40 35 31 28 28 24 21 22 19 17 17 17 17 17 16 13 13 13 14 15
41 42 47 51 52 51 49 47 45 43 42 41 39 35 33 31 29 27 24 24 22 20 18 18 18 18 16 15 13 14 16 16
13 18 24 41 49 49 49 46 44 43 43 41 39 37 35 32 31 28 27 26 22 21 20 20 18 18 17 16 15 15 16 16
2 4 12 20 31 43 43 42 42 42 42 39 37 36 34 32 32 31 28 26 25 22 22 21 19 18 18 17 17 17 18 17
Wind_Direction
164 160 159 164 161 158 157 153 154 153 152 146 125 116 103 98 82 72 56 41 30 19 43 52 43 32 31 25 22 37 66 110
177 169 172 171 168 169 163 163 168 169 164 158 145 136 125 116 83 74 60 37 18 17 38 42 38 28 32 34 31 51 90 138
183 178 184 184 176 175 171 171 170 168 167 150 143 150 142 132 83 47 39 38 20 22 39 34 28 28 24 33 39 41 70 123
188 184 194 190 185 179 177 171 170 170 168 170 168 170 172 145 112 52 33 30 22 14 22 28 21 18 19 25 33 47 50 65
197 191 196 198 191 183 180 179 180 177 182 192 201 218 207 180 134 14 2 353 9 8 356 1 8 4 10 17 21 32 47 43
198 196 203 202 195 187 186 189 191 186 191 207 206 219 225 226 240 288 294 341 352 348 342 337 349 349 357 1 13 18 17 19
200 204 206 204 199 193 191 196 196 193 204 204 214 220 222 229 243 268 287 300 316 325 327 316 323 329 334 339 355 3 3 2
201 201 201 203 203 200 199 199 202 202 207 209 214 220 231 239 249 265 287 300 307 313 315 305 307 310 316 321 332 344 345 341
205 207 206 207 207 206 208 207 208 210 213 216 220 228 232 236 249 263 275 278 284 292 296 288 290 297 301 304 314 324 328 326
208 210 211 210 209 210 213 214 216 217 218 222 223 228 232 240 247 253 262 270 279 284 288 283 282 284 284 293 295 301 308 311
209 212 213 215 216 215 217 222 224 224 224 228 227 229 231 236 239 251 260 271 277 282 282 279 279 281 286 287 288 294 295 303
212 212 216 219 218 219 222 221 225 226 227 231 231 232 235 238 240 248 254 261 270 277 276 272 274 277 281 285 287 286 289 295
214 213 216 217 220 220 222 223 226 230 230 232 234 236 238 240 241 246 252 259 270 273 271 271 274 277 281 283 283 289 288 292
215 214 217 219 222 223 223 224 225 228 228 233 234 235 240 242 241 242 249 252 264 268 273 273 274 275 276 278 283 284 282 298
216 216 219 221 223 225 226 225 225 227 227 231 234 237 243 245 243 243 249 254 260 264 270 272 273 273 274 276 277 278 278 292
217 219 221 223 223 225 227 227 227 228 227 230 234 237 244 244 242 244 248 254 258 261 268 271 269 272 273 274 274 274 279 290
225 223 227 226 226 227 226 229 227 228 229 233 234 237 243 244 242 240 245 251 252 257 265 268 269 272 273 274 272 275 283 290
208 224 240 240 235 232 229 231 226 229 230 233 237 239 243 246 243 240 242 246 250 256 262 265 267 267 271 272 271 275 280 285
135 229 236 244 244 234 229 228 229 230 231 235 240 244 246 248 242 242 245 245 249 255 259 262 263 266 270 270 273 278 281 284
Height
1570 1572 1574 1577 1580 1581 1582 1582 1584 1585 1587 1588 1587 1591 1590 1591 1591 1589 1590 1589 1588 1586 1586 1585 1585 1585 1583 1582 1581 1580 1578 1577
1569 1571 1574 1575 1578 1580 1581 1584 1586 1586 1586 1588 1588 1589 1591 1591 1591 1590 1588 1588 1588 1587 1587 1586 1585 1584 1583 1581 1580 1580 1579 1579
1567 1569 1571 1573 1576 1578 1581 1583 1586 1586 1587 1587 1591 1590 1591 1591 1590 1591 1589 1588 1588 1588 1587 1586 1585 1583 1582 1581 1580 1579 1579 1579
1564 1567 1569 1572 1574 1577 1580 1582 1584 1586 1586 1587 1588 1588 1590 1590 1591 1590 1589 1588 1587 1587 1586 1585 1585 1583 1581 1580 1579 1579 1578 1577
1560 1563 1566 1569 1573 1576 1579 1581 1582 1584 1585 1585 1586 1586 1589 1590 1589 1589 1589 1589 1587 1586 1585 1584 1583 1582 1581 1579 1578 1577 1577 1577
1553 1556 1562 1566 1570 1573 1576 1578 1579 1581 1583 1584 1584 1586 1587 1587 1587 1587 1588 1587 1586 1585 1584 1583 1582 1581 1580 1579 1577 1576 1576 1575
1551 1555 1559 1563 1567 1570 1573 1575 1577 1579 1582 1582 1583 1583 1584 1585 1585 1585 1585 1585 1585 1584 1582 1580 1580 1580 1579 1578 1577 1577 1576 1574
1547 1549 1554 1557 1561 1566 1570 1571 1573 1576 1579 1579 1579 1579 1582 1582 1583 1583 1583 1582 1582 1581 1581 1579 1578 1578 1577 1576 1575 1575 1575 1574
1541 1544 1548 1552 1556 1560 1564 1567 1570 1573 1575 1575 1576 1577 1578 1579 1579 1580 1580 1580 1579 1579 1577 1577 1576 1575 1574 1573 1573 1573 1572 1571
1534 1539 1542 1546 1551 1554 1559 1563 1566 1569 1571 1572 1573 1575 1575 1576 1575 1576 1577 1576 1576 1575 1575 1574 1574 1573 1572 1572 1570 1570 1570 1569
1531 1535 1538 1541 1547 1551 1555 1558 1561 1563 1567 1569 1570 1571 1573 1574 1573 1574 1573 1575 1574 1573 1572 1572 1571 1571 1570 1569 1568 1567 1566 1566
1524 1529 1533 1537 1542 1545 1548 1552 1554 1557 1561 1563 1566 1568 1569 1570 1571 1572 1572 1571 1571 1570 1569 1568 1568 1568 1567 1566 1565 1564 1563 1563
1519 1523 1528 1532 1535 1539 1541 1545 1548 1551 1554 1556 1560 1563 1564 1566 1567 1568 1568 1567 1566 1566 1565 1564 1563 1564 1564 1563 1562 1562 1561 1561
1515 1519 1522 1524 1526 1530 1533 1537 1541 1545 1548 1550 1553 1556 1558 1560 1562 1563 1564 1564 1563 1562 1561 1561 1560 1559 1560 1559 1559 1558 1557 1557
1507 1511 1513 1517 1520 1523 1526 1530 1534 1538 1541 1544 1547 1549 1551 1553 1555 1557 1558 1559 1558 1558 1557 1557 1556 1555 1555 1555 1555 1554 1553 1553
1502 1504 1507 1510 1514 1517 1522 1525 1528 1531 1535 1537 1540 1544 1547 1548 1549 1551 1552 1552 1554 1554 1552 1552 1552 1551 1550 1551 1551 1550 1550 1549
1498 1500 1503 1504 1507 1510 1514 1517 1522 1525 1528 1531 1535 1538 1539 1540 1541 1543 1545 1546 1548 1548 1548 1547 1548 1547 1547 1546 1546 1545 1545 1544
1496 1497 1498 1500 1501 1504 1507 1511 1516 1519 1522 1526 1529 1530 1531 1532 1534 1535 1536 1538 1541 1542 1542 1542 1542 1542 1542 1541 1541 1541 1539 1539
1493 1493 1495 1495 1496 1499 1504 1509 1512 1514 1516 1519 1523 1524 1525 1526 1527 1528 1530 1531 1533 1535 1536 1536 1537 1537 1537 1537 1537 1536 1534 1534